Regional Weather Roundup
Issued by NWS

Home | Current Version | Previous Version | Text Only | Print | Product List | Glossary Off
Versions: 1 2 3 4 5 6 7 8 9 10 11 12 13 14 15 16 17 18 19 20 21 22 23 24 25 26 27 28 29 30 31 32 33 34 35 36 37 38 39 40 41 42 43 44 45 46 47 48 49 50

000
ASUS43 KOAX 041310
RWRNE

WEATHER ROUNDUP FOR NEBRASKA
NATIONAL WEATHER SERVICE OMAHA NE
800 AM CDT WED MAY 04 2016

NOTES: SATELLITE DATA IS BEING USED TO AUGMENT CLOUD COVER ABOVE
       12000 FEET.
       "FAIR" INDICATES FEW OR NO CLOUDS BELOW 12,000 FEET WITH NO
       SIGNIFICANT WEATHER AND/OR OBSTRUCTIONS TO VISIBILITY.

  * THESE STATIONS DO NOT REPORT WEATHER SUCH AS RAIN...SNOW OR FOG.

NEZ001>004-019>022-054>056-041400-
NEBRASKA PANHANDLE

CITY           SKY/WX    TMP DP  RH WIND       PRES   REMARKS
SCOTTSBLUFF    SUNNY     44  39  82 NW8       30.20R
ALLIANCE       SUNNY     41  37  86 CALM      30.19R
CHADRON        SUNNY     43  39  86 SW6       30.19R
KIMBALL        SUNNY     43  39  85 W7        30.23S
SIDNEY         SUNNY     44  38  79 W8        30.21R
$$

NEZ057>060-069>072-079>082-041400-
SOUTHWEST NEBRASKA

CITY           SKY/WX    TMP DP  RH WIND       PRES   REMARKS
NORTH PLATTE   SUNNY     45  42  89 NW3       30.15R
IMPERIAL       SUNNY     47  40  76 N8        30.17R
LEXINGTON      SUNNY     46  42  85 NW6       30.13R
MCCOOK         SUNNY     47  40  76 W8        30.15R
OGALLALA       SUNNY     44  40  85 W5        30.18S
$$

NEZ005>010-023>029-035>040-094-041400-
NORTH CENTRAL NEBRASKA

CITY           SKY/WX    TMP DP  RH WIND       PRES   REMARKS
VALENTINE      SUNNY     45  38  76 W5        30.15R
AINSWORTH      SUNNY     47  38  70 NW5       30.13S
BROKEN BOW     SUNNY     49  40  71 N7        30.12R
O`NEILL        SUNNY     48  36  64 NW8       30.11R
ORD            SUNNY     47  39  74 NW8       30.10R
THEDFORD       SUNNY     47  42  81 NW5       30.16R
$$

NEZ041-046>049-061>064-073>077-083>087-041400-
SOUTH CENTRAL NEBRASKA

CITY           SKY/WX    TMP DP  RH WIND       PRES   REMARKS
GRAND ISLAND   SUNNY     50  39  66 NW9       30.09R
AURORA         SUNNY     50  40  69 NW10      30.07R
HASTINGS       SUNNY     50  40  68 N12       30.08R
HEBRON         SUNNY     53  40  61 NW7       30.05R
HOLDREGE       SUNNY     49  41  73 NW8       30.11R
KEARNEY *      SUNNY     48  39  71 N8        30.11R
YORK           SUNNY     50  37  62 N10       30.06R
$$

NEZ011>018-030>034-042>045-041400-
NORTHEAST NEBRASKA

CITY           SKY/WX    TMP DP  RH WIND       PRES   REMARKS
NORFOLK        SUNNY     49  36  61 NW10      30.07R
ALBION         SUNNY     45  38  77 NW7       30.09R
BLAIR          SUNNY     51  35  53 N15       30.01R
COLUMBUS *     SUNNY     50  34  53 NW13G18   30.06R
FREMONT        SUNNY     49  37  64 NW7       30.04R
TEKAMAH        SUNNY     51  38  60 N12       30.03R
WAYNE          SUNNY     48  38  66 NW8       30.07R
$$

NEZ050>053-065>068-078-088>093-041400-
SOUTHEAST NEBRASKA

CITY           SKY/WX    TMP DP  RH WIND       PRES   REMARKS
LINCOLN        SUNNY     53  36  52 NW13      30.04R
OMAHA EPPLEY   SUNNY     51  38  60 N12       30.00R
BEATRICE       SUNNY     51  41  68 N13       30.02R
FALLS CITY     SUNNY     54  39  57 NW12      29.97R
NEBRASKA CITY  SUNNY     52  35  53 N13       29.99R
PLATTSMOUTH    SUNNY     52  39  60 NW10      30.00R
$$

NEZ044-045-051>053-067-041400-
OMAHA AREA

CITY           SKY/WX    TMP DP  RH WIND       PRES   REMARKS
OMAHA EPPLEY   SUNNY     51  38  60 N12       30.00R
BLAIR          SUNNY     51  35  53 N15       30.01R
FREMONT        SUNNY     49  37  64 NW7       30.04R
MILLARD        SUNNY     52  35  52 N6        30.01R
OFFUTT AFB     SUNNY     53  37  53 N13       29.99R
PLATTSMOUTH    SUNNY     52  39  60 NW10      30.00R
WAHOO          FAIR      50  38  62 N14       30.03R
$$




USA.gov is the U.S. government's official web portal to all federal, state and local government web resources and services.